Wind_Speed
23 24 25 26 26 26 27 26 27 27 27 27 28 27 27 27 27 27 26 25 25 24 25 25 25 25 25 24 24 24 24 24 24 25 25 25 25 25 25 26 26 27 27
24 25 25 26 26 26 27 26 26 27 27 28 28 28 27 28 27 27 26 25 25 25 25 25 25 25 24 23 23 23 24 24 24 24 25 25 25 25 24 25 26 26 27
26 26 26 26 26 26 27 26 26 27 28 28 27 27 27 26 26 25 24 23 23 23 23 24 23 23 23 23 23 23 24 24 24 25 26 26 25 25 25 25 25 26 27
28 28 27 27 28 27 27 27 27 27 26 26 26 27 26 25 24 23 23 22 22 23 23 23 23 22 22 23 23 24 24 24 24 25 26 26 26 26 26 26 26 26 27
28 28 28 28 28 28 27 27 27 26 25 25 26 26 25 24 24 23 22 22 22 22 22 22 22 22 23 23 24 25 25 25 25 25 25 26 27 27 26 26 26 26 26
27 28 28 28 27 26 26 26 24 24 24 25 25 25 23 23 23 22 22 22 22 22 22 22 23 23 23 24 24 24 24 25 25 25 25 26 27 27 27 26 25 25 26
27 27 26 25 25 25 25 24 24 24 24 24 24 24 22 22 22 21 21 21 21 22 22 22 22 23 23 23 23 24 25 26 26 26 26 26 27 27 27 26 25 25 25
25 25 24 24 23 23 23 23 23 24 24 24 23 22 21 20 20 20 20 20 20 21 21 21 21 22 23 22 23 24 25 26 26 27 27 27 27 27 27 26 25 25 25
23 23 23 22 22 22 22 22 22 23 23 23 21 20 20 19 19 19 20 20 19 19 20 21 21 22 22 22 22 23 24 25 25 26 26 26 26 26 25 25 25 26 26
22 22 21 21 21 21 21 22 22 21 21 20 19 19 19 18 19 18 18 18 18 19 19 20 21 21 21 21 21 22 23 24 24 24 24 24 24 25 25 25 26 27 27
21 21 21 21 21 21 21 21 21 21 20 19 18 17 16 16 17 17 17 17 17 17 18 19 20 20 20 20 21 22 22 22 22 22 22 23 23 24 25 25 26 26 28
21 20 20 21 20 21 20 20 20 20 19 17 16 15 15 15 16 16 15 16 16 16 17 19 19 19 19 20 20 20 21 21 22 22 21 21 22 22 23 24 25 25 27
20 20 20 20 20 20 19 19 19 19 18 16 15 14 13 14 14 14 15 15 15 16 17 18 18 18 18 19 19 20 20 21 21 21 21 21 21 22 23 23 23 23 25
20 19 19 19 19 19 20 19 19 19 17 16 16 14 13 13 14 14 14 14 15 15 16 17 17 16 17 18 18 19 20 20 21 20 21 21 21 22 22 22 23 23 24
19 18 19 19 19 19 19 19 19 18 17 16 16 15 13 14 14 13 14 15 15 15 16 17 16 17 17 18 19 19 20 21 21 21 21 21 21 21 21 22 22 23 24
19 18 19 18 18 19 19 19 18 17 17 16 15 13 12 13 13 13 13 15 15 17 18 18 17 18 18 18 19 19 20 21 21 20 20 21 20 21 21 22 22 23 24
18 18 18 19 19 18 19 18 18 17 16 16 13 12 13 13 14 13 14 15 16 17 18 18 18 18 18 18 19 20 21 22 22 21 21 21 20 21 22 22 23 24 24
18 18 18 18 18 18 18 18 17 16 15 14 13 12 13 13 13 14 14 16 17 17 17 18 18 19 19 19 20 21 22 22 22 22 21 21 21 22 23 23 23 25 25
17 18 19 18 18 18 17 17 17 16 14 14 13 13 13 13 14 15 16 16 17 17 17 18 18 19 20 21 22 22 22 22 22 22 22 23 23 23 24 24 24 25 24
17 17 17 17 17 17 17 16 16 15 14 13 13 13 13 13 14 15 16 16 16 17 18 18 19 20 21 21 22 23 22 22 23 23 23 23 24 24 24 25 25 25 24
18 17 16 16 16 16 16 15 15 15 14 13 13 14 13 14 15 15 16 17 17 18 18 19 20 21 22 22 23 23 23 23 24 24 24 23 24 25 25 25 25 24 23
17 16 16 16 16 15 15 15 15 14 14 13 13 14 14 14 15 16 17 18 18 18 19 19 20 21 22 23 23 23 23 24 25 24 24 24 24 25 25 25 25 24 24
15 15 15 15 15 15 14 14 15 14 13 13 13 14 14 15 16 16 17 18 18 19 19 19 20 20 22 23 23 24 24 24 25 25 25 25 25 26 26 25 25 24 24
15 14 14 15 14 14 14 14 14 13 13 14 14 14 14 15 16 17 17 18 18 18 18 19 20 21 22 23 23 23 24 25 25 26 25 25 25 25 25 25 25 24 24
15 15 14 14 14 14 14 14 14 13 13 14 15 14 14 14 15 16 16 17 17 17 18 19 20 22 23 23 24 25 26 26 26 26 26 25 25 24 25 25 25 24 24
15 15 15 14 14 14 14 14 13 13 13 14 14 14 13 14 14 15 15 16 17 17 19 20 21 22 23 24 24 25 27 27 27 26 26 25 25 25 25 25 25 25 25
Wind_Direction
301 301 302 303 303 303 302 301 300 299 298 297 296 297 298 299 301 300 298 296 295 296 297 299 299 299 298 296 295 295 295 294 291 290 291 290 288 284 279 277 275 271 267
302 302 303 304 304 303 302 301 299 299 300 300 298 298 299 299 299 298 296 294 294 295 297 298 297 297 298 298 296 296 298 296 293 292 293 291 290 288 283 279 278 274 270
304 305 304 304 303 304 302 301 299 299 299 299 298 299 299 298 299 298 296 295 295 295 296 296 296 297 297 297 297 298 298 297 295 294 294 294 291 286 285 283 280 276 271
304 306 306 305 304 304 304 303 302 300 299 299 298 299 300 298 297 296 296 295 294 293 295 294 296 297 298 299 299 299 299 296 295 295 294 293 292 290 286 284 281 278 274
304 307 308 306 305 305 306 305 303 301 302 300 300 300 298 297 296 295 296 295 294 296 295 295 295 298 299 299 300 299 299 296 295 295 294 293 293 293 291 287 283 279 276
307 308 308 305 305 305 306 306 305 304 302 301 300 299 298 296 295 294 294 294 294 295 297 297 298 300 301 300 300 299 298 296 296 295 294 294 294 293 292 288 284 281 278
311 312 312 310 309 307 306 307 305 304 303 303 302 300 297 296 296 295 294 295 296 297 298 300 301 302 302 302 300 300 299 297 295 295 295 295 294 292 291 289 287 284 280
316 316 316 317 317 315 312 310 309 310 309 306 303 302 300 298 297 298 298 298 299 300 301 302 304 303 303 303 301 300 301 299 297 296 296 295 294 292 291 290 288 285 282
320 321 320 320 320 321 321 319 318 316 313 310 308 306 303 300 301 300 300 299 298 301 302 303 303 305 304 304 303 302 302 301 299 298 298 296 295 293 291 290 287 286 284
321 320 323 322 323 324 324 324 321 318 316 314 310 308 306 303 303 303 304 300 300 303 303 303 305 307 307 306 304 303 303 304 303 301 299 297 296 295 293 291 288 285 284
323 324 324 323 324 324 325 327 325 323 320 317 314 314 313 311 312 311 308 304 304 306 306 307 310 310 310 309 308 307 307 308 306 303 300 299 300 299 297 294 292 289 287
326 326 326 327 327 327 327 327 328 328 326 324 321 320 318 318 316 316 314 310 310 312 311 310 312 313 315 315 315 312 310 309 307 304 302 302 304 304 302 299 295 293 291
330 330 331 332 332 331 330 331 332 331 331 331 331 328 324 323 324 323 321 320 317 317 316 317 317 316 318 319 319 318 314 313 312 309 305 304 305 305 303 302 298 297 296
331 331 333 335 334 334 334 333 334 335 334 336 337 334 333 331 330 330 329 326 326 326 326 325 323 321 321 323 323 322 322 319 317 314 310 309 308 306 306 304 301 300 299
330 330 332 333 333 335 336 334 333 334 336 336 339 337 334 335 333 332 331 332 334 331 330 330 329 326 325 325 324 324 326 324 320 316 314 312 311 311 310 308 306 304 302
328 329 331 332 333 333 334 334 333 333 335 336 339 342 341 339 336 336 335 335 334 332 332 331 330 330 331 329 329 329 329 326 323 321 318 315 313 312 313 312 310 309 307
329 331 333 333 334 335 334 333 332 333 336 339 339 341 341 340 340 339 338 338 337 337 338 338 337 338 337 335 334 333 332 329 327 325 322 319 318 316 315 313 313 312 309
325 329 333 332 333 334 335 336 336 335 335 340 340 341 345 344 342 340 340 338 337 338 337 340 341 340 340 338 337 335 334 333 332 330 328 325 325 323 321 319 316 315 312
323 326 328 329 331 331 332 336 338 338 335 336 339 342 343 343 341 340 340 339 339 339 340 341 342 341 341 340 340 339 338 336 335 334 332 328 325 324 322 319 318 317 314
321 321 325 328 328 329 331 332 336 338 339 337 338 340 341 342 341 343 343 343 342 341 341 341 341 341 341 341 340 339 338 337 336 334 332 328 326 326 325 322 320 319 316
318 319 322 326 327 327 329 331 335 337 338 337 339 341 341 341 341 341 342 343 342 340 339 338 340 340 340 340 340 340 339 338 337 336 334 333 330 328 328 326 324 321 318
314 317 319 322 325 326 327 329 334 336 338 338 338 339 340 341 341 339 340 342 342 340 340 340 341 342 343 343 343 343 342 341 340 340 339 338 335 333 331 330 328 325 322
310 314 316 319 322 324 325 327 331 332 334 336 336 337 337 337 338 338 340 342 341 341 342 343 344 345 345 344 344 344 344 344 344 342 341 340 338 336 335 335 333 330 327
308 310 313 316 318 321 322 324 326 327 328 331 333 332 333 335 338 339 341 341 342 343 343 344 346 346 346 346 346 347 346 346 346 345 342 341 341 342 342 340 338 335 332
307 308 310 312 314 316 318 322 323 325 326 329 331 329 329 333 337 340 342 343 345 346 345 345 347 348 348 348 348 348 347 347 347 346 345 343 343 344 344 343 341 338 336
301 303 305 307 310 313 314 317 320 320 322 327 331 332 332 334 338 342 342 344 345 345 345 345 346 347 348 348 349 349 348 347 346 346 346 345 344 345 345 345 344 343 340
Height
5830 5828 5825 5823 5821 5818 5816 5813 5811 5808 5807 5804 5802 5799 5797 5795 5793 5791 5789 5786 5785 5783 5781 5780 5778 5777 5776 5775 5774 5773 5771 5770 5769 5768 5767 5766 5765 5764 5763 5763 5762 5763 5764
5825 5823 5821 5818 5816 5813 5811 5808 5806 5803 5801 5798 5796 5793 5791 5789 5787 5785 5783 5781 5779 5778 5776 5775 5773 5772 5770 5769 5769 5767 5766 5764 5763 5762 5760 5760 5759 5757 5756 5755 5755 5755 5755
5821 5818 5815 5813 5810 5808 5805 5803 5800 5798 5795 5792 5790 5787 5785 5783 5781 5779 5778 5776 5774 5773 5771 5770 5768 5766 5765 5764 5763 5762 5760 5759 5757 5755 5754 5753 5752 5751 5750 5748 5747 5747 5747
5815 5812 5808 5807 5804 5802 5799 5797 5794 5791 5789 5786 5784 5781 5779 5777 5775 5774 5772 5771 5769 5768 5766 5765 5763 5761 5760 5759 5758 5756 5754 5753 5751 5749 5747 5746 5744 5743 5742 5741 5739 5738 5738
5809 5806 5803 5801 5798 5796 5793 5790 5787 5784 5782 5780 5777 5775 5773 5771 5769 5768 5767 5765 5764 5763 5761 5760 5758 5756 5755 5753 5752 5750 5748 5746 5745 5743 5741 5739 5737 5735 5734 5733 5732 5731 5731
5804 5801 5798 5795 5792 5789 5787 5784 5781 5778 5776 5773 5771 5769 5766 5765 5763 5762 5761 5760 5759 5757 5756 5754 5752 5751 5749 5747 5745 5744 5742 5740 5738 5736 5734 5732 5730 5728 5726 5725 5724 5724 5723
5799 5796 5792 5789 5787 5784 5781 5778 5776 5773 5769 5767 5765 5762 5760 5759 5757 5756 5755 5754 5753 5751 5750 5748 5746 5744 5743 5741 5739 5737 5736 5734 5731 5729 5727 5725 5723 5721 5719 5718 5717 5716 5715
5795 5791 5788 5785 5782 5779 5776 5773 5770 5766 5762 5761 5758 5756 5754 5753 5752 5751 5750 5748 5747 5746 5744 5742 5740 5738 5736 5734 5733 5731 5729 5726 5724 5721 5719 5717 5715 5713 5711 5710 5709 5708 5708
5792 5788 5784 5781 5778 5775 5772 5768 5765 5762 5758 5755 5752 5751 5749 5748 5746 5746 5744 5743 5742 5741 5739 5737 5735 5733 5730 5728 5726 5724 5722 5719 5717 5714 5712 5710 5707 5705 5704 5702 5701 5701 5699
5789 5785 5781 5778 5775 5772 5768 5765 5761 5757 5754 5751 5748 5746 5745 5743 5742 5741 5739 5738 5737 5736 5734 5732 5730 5727 5725 5722 5720 5718 5715 5713 5710 5707 5705 5703 5701 5699 5697 5695 5694 5692 5691
5786 5782 5778 5775 5772 5768 5765 5762 5758 5754 5751 5747 5744 5742 5741 5739 5738 5737 5735 5734 5732 5731 5729 5727 5724 5722 5719 5717 5714 5711 5709 5707 5704 5701 5699 5697 5694 5692 5690 5688 5686 5684 5683
5783 5779 5775 5772 5769 5766 5762 5759 5755 5752 5748 5745 5741 5740 5738 5737 5735 5733 5731 5730 5728 5727 5725 5722 5719 5716 5714 5711 5709 5706 5703 5701 5698 5695 5693 5690 5688 5685 5683 5680 5678 5677 5675
5781 5777 5774 5771 5767 5764 5760 5757 5753 5750 5746 5742 5740 5738 5736 5735 5733 5731 5729 5727 5725 5723 5721 5718 5715 5712 5710 5707 5704 5701 5698 5695 5692 5689 5687 5684 5681 5679 5676 5674 5672 5669 5667
5779 5776 5772 5769 5765 5762 5759 5755 5751 5748 5745 5741 5739 5737 5735 5733 5731 5729 5727 5725 5722 5720 5718 5715 5712 5709 5706 5703 5700 5697 5694 5691 5687 5684 5681 5678 5676 5673 5670 5668 5665 5662 5659
5777 5774 5771 5767 5764 5761 5757 5753 5750 5747 5744 5741 5739 5736 5733 5732 5730 5728 5726 5723 5720 5718 5715 5712 5709 5706 5703 5700 5697 5693 5690 5687 5683 5679 5676 5673 5670 5667 5665 5662 5659 5656 5653
5776 5772 5769 5766 5763 5759 5756 5752 5749 5746 5743 5740 5738 5734 5732 5731 5729 5727 5724 5722 5719 5716 5713 5709 5706 5703 5700 5697 5693 5690 5687 5683 5679 5675 5672 5669 5666 5663 5660 5656 5653 5650 5646
5774 5771 5768 5764 5761 5758 5755 5751 5748 5745 5742 5739 5736 5734 5732 5730 5728 5726 5723 5720 5717 5714 5711 5707 5704 5700 5697 5694 5690 5687 5683 5679 5675 5671 5668 5664 5661 5658 5654 5651 5648 5644 5640
5772 5769 5766 5763 5760 5757 5754 5750 5747 5744 5741 5738 5736 5734 5731 5729 5727 5725 5722 5719 5716 5713 5709 5706 5702 5698 5694 5691 5687 5684 5680 5676 5672 5668 5664 5660 5656 5653 5649 5646 5642 5638 5634
5770 5767 5764 5761 5759 5756 5752 5749 5746 5743 5740 5738 5735 5733 5731 5729 5726 5724 5721 5717 5714 5711 5707 5704 5700 5696 5692 5689 5685 5681 5676 5672 5668 5664 5660 5656 5652 5648 5644 5640 5636 5632 5627
5767 5765 5762 5759 5757 5754 5751 5748 5745 5742 5739 5737 5734 5732 5730 5727 5725 5722 5719 5716 5712 5709 5705 5702 5698 5694 5690 5686 5682 5677 5673 5669 5664 5660 5655 5651 5647 5642 5638 5634 5630 5626 5621
5764 5762 5760 5757 5754 5752 5749 5746 5744 5741 5738 5736 5733 5731 5728 5726 5723 5720 5717 5713 5710 5707 5703 5699 5695 5691 5687 5682 5678 5674 5669 5665 5660 5656 5651 5646 5641 5637 5633 5628 5624 5619 5615
5761 5759 5757 5755 5752 5750 5747 5745 5742 5740 5737 5734 5732 5729 5727 5724 5721 5718 5715 5711 5708 5704 5701 5697 5693 5688 5684 5680 5675 5670 5666 5661 5656 5651 5647 5642 5637 5632 5627 5623 5618 5613 5609
5758 5756 5754 5752 5750 5747 5745 5743 5740 5738 5735 5733 5731 5728 5725 5722 5719 5716 5713 5709 5706 5702 5698 5694 5691 5686 5682 5677 5673 5668 5663 5658 5653 5648 5643 5638 5633 5628 5623 5618 5613 5608 5604
5755 5753 5751 5749 5747 5745 5743 5741 5738 5736 5734 5731 5729 5726 5723 5720 5717 5714 5711 5707 5704 5700 5696 5692 5688 5684 5680 5675 5671 5666 5661 5656 5650 5645 5640 5635 5629 5624 5619 5614 5609 5604 5599
5752 5750 5748 5747 5745 5743 5741 5738 5736 5734 5731 5729 5726 5724 5721 5718 5715 5712 5709 5705 5702 5698 5694 5690 5686 5682 5678 5673 5668 5663 5658 5653 5647 5642 5637 5632 5627 5622 5617 5611 5606 5601 5596
5748 5747 5745 5744 5742 5740 5738 5736 5734 5731 5729 5727 5724 5722 5719 5716 5714 5711 5707 5704 5700 5696 5693 5689 5684 5680 5676 5671 5666 5661 5656 5650 5645 5639 5634 5629 5624 5619 5614 5609 5603 5598 5592